Location: Boiro
(42.6475°N, 8.8834°W)
Time: 03:49:15
(UTC+01:00)

Explorer 11/Cluster Stage 4 - Pass Details

Date: 01 December 2021
Orbit: 467 x 1255 km, 28.8° (Epoch: 20 January)

Event Time Altitude Azimuth Distance (km) Brightness Sun altitude
Rises 08:26:37 0° 257° (WSW) 4,122 9.8 -4.0°
Reaches altitude 10° 08:30:07 10° 244° (WSW) 3,204 9.4 -3.4°
Maximum altitude 08:36:15 24° 195° (SSW) 2,343 9.2 -2.4°
Drops below altitude 10° 08:42:18 10° 146° (SSE) 3,148 10.9 -1.4°
Sets 08:45:42 0° 134° (SE) 4,034 12.2 -0.9°
